Info for pilots

Image

Airfield Info:

EBUL
N51 08.7 - E003 28.6
ELEV 95' / 29m
RWY 07 / 25
799m * 45m (CIV) - 2980m (MIL)
Ursel Radio 135,125
Tel Aero Club Brugge : +32(0)9 374 25 75
Tel Vliegclub Ursel : +32(0)9 374 12 90

Operational Hours
FRI: 1300 - SS+30 MIN
SAT, SUN and HOL: TKOF and LDG: 0900 - SS+30 MIN
After 1900 to SS+30 MIN: only LDG allowed (PN)

Local Traffic Regulations
The use of the AD is subject to PPR from the OPR;
AD given in concession to the CIV club outside MIL ACT;
Solo training flights can only be performed after two reconnaissance flights with instructor. The solo training flight must be performed within six weeks after the first reconnaissance flight;
Jet aircraft operations not allowed.
Obstacles: trees between 10M AGL and 22M AGL, caution when crosswind:
North of the RWY, 75M from CL, along the whole length of the RWY;
South of the RWY, 75M from CL, and at THR RWY 25 from THR RWY 07 to 140M east of THR RWY 07

Image

Image

Watch out!

Flight Procedures
RWY 07 and 25 left hand circuit, 1.200 FT

Taxi procedures:
RWY 07 (TKOF):
taxi on the north side of the RWY to the HLDG position of RWY 07

RWY 07 (LDG):
after landing roll out to the second intersection (THR RWY 25), turn left, turn left again, taxi via the TWY to the first intersection, turn left, cross the RWY (check for landing ACFT), taxi on the south side of the RWY to the AD reporting office

RWY 25 (TKOF):
taxi on the north side of the first intersection, turn left, next turn right, taxi via the TWY to the second intersection, turn right, taxi to the HLDG of RWY 25

RWY 25 (LDG):
after landing roll out to the end of the RWY, taxi on the south side of the RWY to the AD reporting office.

Image

Current Metars - Auto refresh

EBOS - Oostende
2017/09/24 02:50 EBOS 240250Z VRB01KT 8000 NSC 08/06 Q1022 NOSIG


EBAW - Antwerpen
2017/09/24 02:50 EBAW 240250Z AUTO 07002KT 2600 BR FEW002/// 08/06 Q1022


EBBR - Brussel
2017/09/24 02:50 EBBR 240250Z VRB01KT 4800 BR MIFG NSC 07/06 Q1022 NOSIG

Source : NOAA.GOV

Current TAFs - Auto refresh

EBOS - Oostende
2017/09/23 18:27 TAF EBOS 231710Z 2318/2424 10006KT CAVOK PROB40 2402/2408 4000 BR PROB30 TEMPO 2404/2407 2000

EBAW - Antwerpen
2017/09/24 03:27 TAF TAF EBAW 240200Z 2403/2412 09003KT 4500 BR NSC TEMPO 2404/2409 1200 BCFG PROB40 TEMPO 2405/2408 0500 FG BKN001 BECMG 2408/2410 8000 NSW FEW010

EBBR - Brussel
2017/09/23 18:27 TAF TAF EBBR 231710Z 2318/2424 09004KT CAVOK BECMG 2400/2402 3000 BR MIFG PROB40 TEMPO 2403/2408 1200 BCFG PROB30 TEMPO 2404/2407 0600 FG VV001 BECMG 2408/2410 9999 NSW

Source : NOAA.GOV
Image

Webcam

Direction runway 07 :


Image

Sorry, PPR Requests are offline for the moment